Flag for U.S.A. Weather past 2 weeks in Germantown, Maryland, U.S.A.

Now
77 °F

Broken clouds.


Feels Like: 79 °F
Forecast: 65 / 78 °F
Wind: 9 mph from West

Location: Frederick Municipal Airport

Current Time: Jul 28, 2014 at 9:46:09 AM

Latest Report: Jul 28, 2014 at 8:45 AM


Visibility: 10 mi

Pressure: 29.66 "Hg

Humidity: 74%

Dew point: 68 °F

Location of GermantownLocation

Historic Weather in Germantown — Graph

°F

Germantown temperature yesterday

Maximum temperature yesterday: 88 °F (at 2:45 PM)
Minimum temperature yesterday: 68 °F (at 11:25 PM)
Average temperature yesterday: 75 °F

Past Weeks' High & Low Weather Summary

 TemperatureHumidityPressure
High95 °F (Jul 23, 3:45 PM)100% (Jul 13, 8:45 PM)30.28 "Hg (Jul 13, 8:45 PM)
Low55 °F (Jul 18, 4:00 AM)39% (Jul 17, 5:50 PM)29.61 "Hg (Jul 28, 3:45 AM)
Average71 °F89%30.01 "Hg
* Reported Jul 13 8:47 AM — Jul 28 8:45 AM, Germantown, Weather by CustomWeather, © 2014

Note: Actual official high and low records may vary slightly from our data, if they occured in-between our weather recording intervals... More about our weather records

Advertising

Germantown weather history for previous 24 hours

 ConditionsComfort  
Time TempWeatherWind HumidityBarometerVisibility
8:45 AM
Jul 28
77 °FBroken clouds.9 mph74%29.66 "Hg10 mi
7:45 AM75 °FPartly sunny.12 mph83%29.65 "Hg10 mi
7:00 AM66 °FClear.No wind100%29.63 "Hg10 mi
6:25 AM64 °FFog.No wind100%29.62 "Hg4 mi
6:05 AM64 °FClear.No wind100%29.62 "Hg7 mi
5:45 AM64 °FClear.No wind100%29.62 "Hg10 mi
5:25 AM64 °FClear.No wind100%29.62 "Hg10 mi
5:05 AM64 °FClear.3 mph100%29.61 "Hg10 mi
4:45 AM64 °FClear.No wind100%29.61 "Hg10 mi
4:25 AM64 °FFog.5 mph100%29.61 "Hg2 mi
4:05 AM64 °FFog.No wind100%29.61 "Hg4 mi
3:45 AM64 °FFog.No wind100%29.61 "Hg4 mi
3:25 AM64 °FFog.3 mph100%29.62 "Hg4 mi
3:05 AM66 °FFog.No wind100%29.63 "Hg5 mi
2:45 AM66 °FMostly cloudy.No wind100%29.64 "Hg7 mi
2:25 AM66 °FLow clouds.3 mph100%29.64 "Hg10 mi
2:05 AM66 °FLow clouds.No wind100%29.64 "Hg10 mi
1:45 AM66 °FLow clouds.3 mph100%29.64 "Hg10 mi
1:25 AM68 °FLow clouds.No wind100%29.66 "Hg10 mi
1:05 AM66 °FThundershowers. Passing clouds.No wind100%29.67 "Hg10 mi
12:45 AM66 °FThundershowers. Passing clouds.No wind100%29.66 "Hg10 mi
12:25 AM68 °FThundershowers. Passing clouds.5 mph100%29.66 "Hg10 mi
12:05 AM68 °FThundershowers. Overcast.10 mph100%29.67 "Hg10 mi
11:45 PM
Jul 27
68 °FThunderstorms. Mostly cloudy.3 mph100%29.69 "Hg7 mi
11:25 PM68 °FThunderstorms. Overcast.7 mph100%29.69 "Hg7 mi
10:45 PM72 °FThunderstorms. Mostly cloudy.10 mph88%29.71 "Hg10 mi
10:25 PM73 °FThunderstorms. Overcast.9 mph94%29.69 "Hg10 mi
10:05 PM77 °FThunderstorms. Passing clouds.No wind89%29.69 "Hg10 mi
9:45 PM77 °FClear.No wind89%29.70 "Hg10 mi
9:25 PM77 °FSunny.3 mph89%29.69 "Hg10 mi
9:05 PM77 °FScattered clouds.3 mph89%29.69 "Hg10 mi
8:45 PM79 °FBroken clouds.3 mph84%29.70 "Hg10 mi
7:55 PM81 °FPartly sunny.7 mph79%29.70 "Hg10 mi
6:50 PM82 °FSunny.6 mph70%29.71 "Hg10 mi
5:45 PM84 °FSunny.8 mph70%29.71 "Hg10 mi
4:45 PM84 °FSunny.6 mph62%29.74 "Hg10 mi
3:45 PM88 °FScattered clouds.10 mph62%29.77 "Hg10 mi
2:45 PM88 °FScattered clouds.10 mph62%29.79 "Hg10 mi
1:47 PM86 °FPartly sunny.9 mph66%29.80 "Hg10 mi
12:52 PM84 °FPartly sunny.No wind66%29.81 "Hg10 mi
11:45 AM84 °FWarm.8 mph70%29.83 "Hg10 mi
10:45 AM82 °FSunny.9 mph70%29.84 "Hg10 mi
9:45 AM79 °FSunny.5 mph79%29.84 "Hg10 mi
Weather by CustomWeather, © 2014

See weather overviewHow to use our weather pages